Flight Information

DEPARTURE
CARLSBAD, CA
Elevation:
330
Runways:
6/24 - 4897x150 - ASPH-G
H1 - 40x50 - CONC-G
Active PE Departure:
6
Current PE ATIS:
E
Altimeter:
30.18
Remarks:
ATIS:
120.15 760-438-2117
Clearance Delivery:
134.85
Ground:
121.8
Tower:
118.6
DESTINATION
,
Elevation:
TPA:
1000 (est.)


6754 NM74° True-13° Var60° HDG

Flight Plan:
(click to file on line)

1. Type
2. Aircraft Identification
3. Aircraft Type / Special Equipment
4. True Airspeed
kts
5. Departure Airport
(ICAO code)
6. Arriving Airport
(ICAO code)
7. Cruising Altitude
ft
8. Alternate Airport
(ICAO code)
9. Route of Flight
10. Remarks


00:00:00 Departure ATIS: Destination ATIS:

Clearance Limit:
Route:
Altitude: Expect in minutes
Frequency:
Transponder: (7500 Hijack / 7600 Lost Comms / 7700 Emergency)


KCRQ 282053Z 11007KT 10SM CLR 22/M10 A3018 RMK AO2 SLP218 T02171100 58024
Time: 2022-01-28T20:53:00Z
1643405931
Winds: 110 @ 7 kts
Visibility: 10.0 sm
Clouds (AGL): CLR
Temperature: 21.7 C
Dew Point: -10.0 C
Pressure: 30.180119 in Hgbr


Notes:

Data extracted from FAA Digital Chart Supplement. Effective: 0901Z Thursday, DEC 2, 2021 to 0901Z Thursday, JAN 27, 2022
Current ATIS data is provided courtisy of PilotEdge.